Theta_e
324 325 325 325 324 324 324 324 324 323 323 323 323 322 322 322 322 322 323 324 323 322 323 324 325 328 323 318 326 348 366 364 353 344 335 331 331 330 326 327 324 321 324 326 326 327 327
324 325 325 325 324 324 323 323 323 323 323 323 322 322 322 322 322 323 323 322 322 322 323 324 326 329 324 316 341 348 346 349 348 349 343 333 335 336 326 327 323 325 327 325 326 326 326
324 324 325 325 324 323 323 323 323 323 322 322 322 322 321 322 322 322 322 321 321 321 323 325 327 328 317 316 343 343 346 343 345 345 343 338 342 332 327 327 329 328 321 325 326 327 325
324 324 325 324 324 323 323 323 323 322 322 321 321 321 321 321 321 320 319 319 319 321 324 326 328 322 313 334 348 345 346 343 347 349 340 339 336 330 324 331 326 322 322 314 324 327 326
324 324 324 324 323 322 322 322 322 321 321 320 320 320 320 319 319 318 317 317 320 324 326 328 321 313 314 339 331 343 345 340 338 339 336 341 333 328 324 319 315 317 312 316 320 326 325
326 325 325 324 323 322 322 321 321 320 320 319 319 319 318 318 317 316 315 317 324 323 325 324 323 310 316 321 329 332 339 339 334 331 328 325 323 319 316 312 306 312 311 316 316 321 320
324 324 324 324 323 323 321 321 320 320 319 319 318 318 317 317 316 315 313 317 314 311 310 308 309 312 322 327 329 328 334 334 333 327 317 322 315 311 316 318 319 317 317 315 321 323 318
323 323 323 323 323 321 321 320 319 318 318 318 317 317 316 315 314 314 311 314 313 313 307 316 316 315 318 318 316 323 332 325 324 318 320 316 310 318 320 316 313 312 312 314 318 322 319
323 322 321 321 320 319 319 318 317 317 317 317 316 316 315 314 313 315 316 317 320 317 306 311 315 316 317 316 315 319 325 323 320 317 317 312 316 322 320 313 311 310 309 311 310 316 317
321 320 319 319 319 318 318 317 317 317 316 315 316 315 314 311 314 318 315 319 319 319 301 305 306 311 316 318 313 322 324 320 317 316 317 314 319 318 316 314 310 304 315 315 314 307 302
319 319 317 316 317 317 317 317 316 315 315 315 315 314 312 311 313 315 317 318 317 315 292 311 308 315 314 314 315 317 322 318 312 313 312 310 314 314 313 314 315 311 315 311 312 306 304
318 318 316 315 316 316 316 315 315 314 314 314 313 312 311 314 316 321 324 320 315 300 295 306 310 308 307 309 313 317 317 320 320 314 314 313 318 315 314 317 316 317 312 310 307 304 297
317 315 314 314 315 315 315 315 314 314 313 313 311 310 308 315 313 319 321 313 299 294 308 305 304 308 307 306 307 308 310 308 309 303 304 310 311 315 317 311 315 311 305 296 296 295 297
316 316 315 315 314 314 315 315 314 313 312 311 309 308 313 318 321 320 316 304 294 305 303 309 309 308 303 305 305 306 305 303 309 310 305 302 301 311 316 311 309 308 304 296 292 296 301
315 315 315 315 314 314 314 314 313 312 311 310 308 317 320 324 324 320 308 297 298 304 308 305 306 303 303 305 303 304 303 304 307 309 305 303 304 314 315 316 313 308 304 307 298 302 299
315 315 314 314 314 314 314 314 313 312 311 309 309 315 320 324 321 314 303 297 301 306 307 306 300 304 301 304 303 304 303 307 306 309 309 307 303 311 315 314 315 310 313 301 300 295 294
314 315 315 315 314 314 315 315 314 312 310 309 312 315 318 320 315 310 300 301 305 310 310 304 302 301 302 302 304 303 303 309 310 307 308 305 302 304 310 306 305 306 305 305 304 301 295
314 314 314 315 314 315 315 314 313 311 309 311 315 311 322 322 306 306 301 304 305 308 310 307 305 303 302 304 303 303 304 307 312 310 304 306 303 299 303 311 315 310 307 307 301 299 301
314 314 314 314 314 315 315 314 312 311 309 306 310 315 320 316 301 303 307 309 310 308 307 307 306 307 307 302 298 303 304 309 312 309 304 306 298 293 298 304 308 306 306 308 308 305 302
313 314 314 314 314 315 314 313 312 311 310 308 313 310 315 314 314 305 303 306 305 311 309 309 307 308 305 302 302 300 302 307 310 310 327 314 300 297 294 300 306 304 307 308 306 299 299
312 312 313 314 314 314 314 313 312 311 310 312 315 308 307 303 304 304 304 304 302 302 307 308 305 306 304 300 302 301 304 305 308 313 311 304 297 301 303 304 305 305 306 307 305 306 300
312 312 312 314 314 314 314 313 313 311 310 315 306 305 306 303 305 303 302 301 302 304 306 305 305 308 308 305 306 303 307 307 305 310 308 306 300 301 300 306 305 303 305 306 308 310 308
312 311 312 312 314 314 314 313 313 311 310 309 311 311 306 301 301 301 302 303 304 306 307 308 307 305 304 307 309 309 309 311 311 307 306 305 302 297 296 303 304 299 303 305 306 309 310
312 312 312 312 313 314 314 313 313 312 311 308 310 310 304 298 301 301 303 304 304 306 304 308 308 305 309 313 311 309 308 309 311 310 310 305 303 300 297 299 293 305 309 308 307 310 310
312 312 312 312 313 313 314 314 313 312 312 308 310 309 306 299 302 301 303 304 305 306 305 306 308 310 313 310 304 300 300 301 304 308 308 309 304 300 297 297 301 306 308 307 305 305 312
311 311 312 312 312 312 312 313 314 313 312 309 309 314 308 301 299 304 301 304 301 302 303 306 310 311 310 308 304 297 295 299 299 301 307 306 307 302 300 296 294 305 312 312 311 301 312
310 311 311 311 312 312 313 313 313 313 313 310 308 311 308 301 304 305 299 300 303 301 300 303 305 305 308 304 301 299 299 304 296 297 299 300 302 299 300 298 303 311 314 315 300 302 313
311 311 311 311 311 312 312 312 313 313 314 310 306 310 307 303 304 306 306 303 303 303 299 304 302 303 303 299 300 300 301 304 302 303 301 300 299 300 300 298 296 315 313 305 311 319 320
311 311 311 311 311 312 312 312 312 313 313 313 304 310 310 303 302 308 307 307 306 305 302 302 301 301 303 302 305 306 303 304 301 296 307 300 308 303 306 306 311 315 313 318 323 322 322
Wind_Speed
16 16 17 18 17 17 18 17 16 16 17 18 18 18 17 18 20 19 18 17 17 17 17 13 9 9 3 4 7 8 16 15 14 13 14 5 11 1 5 11 4 11 8 8 11 9 6
16 17 17 17 17 18 18 18 18 18 17 18 18 19 19 18 19 20 20 19 18 18 17 13 9 7 3 5 8 16 16 16 14 17 17 14 14 13 6 8 8 6 5 11 7 8 11
16 17 17 17 17 18 18 18 19 19 19 19 19 19 20 20 19 21 21 21 19 19 17 13 8 5 5 13 16 15 18 11 19 22 24 24 19 15 0 1 3 6 6 10 6 7 5
15 16 16 17 18 18 18 19 19 20 20 20 20 20 21 21 21 21 22 22 20 19 16 11 5 4 8 4 14 16 16 15 20 23 17 18 13 5 3 4 4 8 2 4 10 6 8
14 15 15 16 16 18 18 19 20 20 21 21 22 21 21 22 21 21 23 24 21 16 10 7 3 4 8 3 7 13 16 14 13 15 10 13 7 6 6 3 4 3 7 5 7 9 8
15 15 15 15 16 17 18 20 20 21 21 23 23 24 23 23 23 20 25 17 5 10 5 7 8 5 8 8 10 12 10 10 9 11 10 8 7 6 4 4 8 10 6 10 11 9 11
16 16 16 16 16 16 18 20 21 21 22 23 24 25 25 26 24 18 13 5 2 2 4 9 7 7 10 10 10 10 11 9 9 8 8 13 9 7 16 17 17 19 17 11 10 12 6
17 18 18 18 18 18 19 20 22 23 23 24 24 25 26 29 29 18 3 3 5 5 9 11 20 18 20 14 18 16 9 8 7 9 9 10 10 14 10 5 9 10 5 15 14 22 8
18 18 18 19 19 20 20 21 22 23 24 24 25 25 26 30 31 2 6 9 6 8 5 12 18 13 17 9 17 9 9 9 10 9 13 10 15 14 16 1 8 8 4 8 12 16 5
17 18 18 19 20 20 21 22 23 23 24 25 25 25 24 31 4 8 6 7 8 7 4 9 8 12 13 10 18 9 9 8 9 11 12 12 14 17 18 11 4 7 10 8 10 6 6
18 18 21 22 20 21 22 22 24 24 25 25 26 24 24 6 8 6 10 9 9 4 4 4 8 7 10 18 10 14 11 13 15 12 7 13 14 17 15 15 2 9 5 8 7 7 5
18 19 21 22 22 22 22 24 25 26 26 26 27 24 20 2 5 10 14 11 7 1 8 5 4 5 7 10 11 14 12 11 10 11 10 9 14 12 15 18 7 8 6 7 8 1 4
19 21 22 23 22 23 23 24 26 27 28 28 29 28 9 6 6 10 12 5 1 4 7 4 5 8 10 10 9 10 13 14 11 6 8 10 12 14 14 13 13 5 1 5 7 5 7
19 20 21 21 23 24 25 26 27 28 30 30 32 28 7 7 7 8 5 3 4 9 12 14 16 11 5 5 9 10 10 8 10 9 7 6 10 18 13 12 9 8 6 7 6 2 4
19 20 20 21 23 24 25 27 29 30 31 30 30 3 4 6 11 5 2 3 5 5 8 16 19 8 9 7 5 5 11 13 12 17 12 6 13 14 11 18 9 9 9 9 5 7 4
20 20 21 22 23 25 26 27 29 31 34 30 6 4 6 9 7 2 1 5 8 15 17 15 13 9 12 13 12 13 11 8 14 15 12 9 12 14 20 9 14 12 11 5 4 3 6
20 20 21 22 23 25 26 28 29 30 35 32 3 3 3 6 2 0 3 7 14 16 15 10 11 10 12 11 12 16 11 21 8 6 11 10 9 13 9 8 8 4 7 6 4 5 5
20 20 21 22 24 25 26 27 27 28 33 9 6 3 5 1 0 4 5 6 7 13 11 10 7 9 11 13 14 14 17 14 20 18 11 5 10 10 15 13 14 9 13 14 7 9 6
19 20 21 22 23 25 26 28 28 25 20 7 6 5 4 4 2 3 8 9 12 13 8 8 9 11 13 11 11 13 18 22 22 17 8 8 6 6 10 13 10 10 7 11 13 8 14
20 21 21 22 23 24 26 28 30 30 23 2 4 4 4 5 5 13 12 9 13 16 11 15 12 12 11 10 10 12 20 18 24 22 13 7 7 7 7 9 6 8 9 8 10 5 5
21 22 22 22 23 24 26 28 31 36 34 2 2 4 11 6 10 15 13 10 11 13 12 9 7 10 12 10 12 11 14 19 22 19 11 5 9 10 14 12 12 13 16 14 10 13 9
19 20 20 21 22 23 25 27 29 34 40 4 5 6 7 13 11 12 11 10 14 12 12 10 11 16 15 10 10 13 17 15 14 16 14 12 12 10 11 14 15 17 20 18 20 18 16
19 20 20 21 22 23 24 25 26 27 23 6 7 6 5 8 8 10 9 15 17 17 10 15 17 16 15 17 20 17 18 16 17 13 15 14 11 7 13 11 18 14 20 16 13 10 15
18 19 20 21 22 22 23 23 23 21 16 4 5 7 4 6 9 11 19 19 17 15 12 15 15 15 14 16 20 18 16 16 18 16 12 14 12 3 10 9 11 19 20 15 20 18 12
17 19 20 21 22 21 21 21 21 20 17 5 6 4 5 8 11 15 17 19 18 17 17 16 15 15 15 17 13 13 12 15 14 14 16 13 9 8 6 11 14 21 18 18 15 20 12
16 17 18 18 19 20 20 19 18 19 17 7 7 4 5 6 5 17 19 16 13 10 12 13 17 19 19 9 9 15 14 9 6 6 10 9 15 11 12 10 17 17 10 15 15 15 14
15 16 16 17 17 18 19 19 19 18 17 8 6 10 5 8 11 11 12 12 12 13 11 13 13 16 13 7 11 13 14 11 16 18 11 8 5 13 14 14 17 20 23 14 10 15 12
15 15 16 17 17 17 17 18 18 18 16 8 7 10 6 8 17 21 19 15 12 12 12 7 9 6 9 10 8 10 10 10 11 11 8 8 8 11 10 11 21 12 13 3 12 6 3
15 15 16 16 17 17 18 18 17 16 14 11 6 8 10 5 12 23 29 27 27 28 15 9 9 13 6 5 6 4 5 5 7 7 7 4 7 6 5 15 14 23 22 18 4 4 6
Wind_Direction
19 16 15 14 12 8 5 4 3 358 351 345 341 338 335 328 325 322 317 313 310 309 308 311 321 311 262 261 238 142 149 154 134 125 131 175 55 148 282 285 1 105 106 113 99 114 153
17 15 14 14 13 8 4 360 357 354 350 344 339 334 332 328 321 317 315 312 308 304 301 304 312 304 224 254 106 149 151 164 179 157 156 158 221 196 242 359 44 20 5 121 137 117 101
13 12 13 13 10 7 3 357 354 350 347 343 338 334 331 327 323 317 313 310 305 302 298 298 299 274 255 242 139 166 157 189 203 190 184 187 204 220 206 50 297 91 32 323 131 121 105
11 9 8 7 6 4 359 356 351 347 343 340 337 334 330 327 323 318 312 306 299 294 294 289 265 256 251 318 163 168 189 209 216 227 233 200 211 280 210 230 33 43 30 349 133 120 19
6 4 2 1 1 359 357 353 349 345 341 338 335 333 330 327 324 320 312 304 293 285 261 268 228 222 258 205 200 194 191 218 247 241 237 238 217 225 158 180 87 86 246 243 149 110 137
360 356 354 354 352 352 352 350 348 345 341 337 334 331 329 327 323 323 314 288 279 316 208 230 257 299 269 236 222 221 209 219 261 296 304 284 227 178 320 127 220 183 211 245 157 217 149
5 359 354 352 352 350 348 348 346 344 341 337 334 330 328 326 322 324 338 343 334 4 236 221 204 230 277 254 227 220 206 209 241 268 279 280 292 247 206 193 238 182 193 219 154 199 102
2 358 357 358 360 355 351 348 345 342 339 336 333 330 328 325 318 321 250 256 24 279 297 246 244 256 271 280 285 256 176 199 215 251 273 298 268 270 243 205 276 293 83 171 182 175 142
8 11 10 6 1 356 352 348 344 341 337 334 332 331 330 326 318 277 232 272 313 305 277 272 229 235 230 241 261 256 177 234 222 248 274 267 272 296 297 244 308 309 269 189 167 183 167
10 9 5 3 358 353 350 346 343 339 335 332 330 329 333 328 343 342 285 354 317 332 304 267 204 234 228 211 250 248 260 229 266 224 257 269 286 299 299 293 223 297 343 345 162 135 185
9 5 3 0 354 351 348 344 341 337 333 330 327 327 326 319 305 298 306 330 312 349 313 264 177 189 182 209 219 245 218 257 259 263 223 257 270 282 290 286 257 268 314 325 312 244 159
8 6 3 360 352 350 346 342 339 336 333 328 323 321 333 118 221 257 292 316 314 348 249 273 132 148 166 215 217 231 243 224 240 267 265 240 271 275 276 292 259 255 284 314 302 252 337
2 4 2 358 352 348 345 342 339 335 332 327 319 313 307 290 243 338 315 314 328 229 303 254 186 175 197 210 230 216 226 246 211 221 262 285 268 271 274 294 299 217 234 316 327 350 238
4 2 359 355 350 347 344 342 339 335 332 328 320 311 214 217 245 273 304 340 257 261 232 334 344 335 250 207 221 210 208 244 268 237 229 225 267 248 239 246 225 273 189 165 253 284 91
4 0 358 355 351 347 345 343 340 337 334 330 314 289 218 250 220 258 9 250 240 260 350 341 336 340 347 321 314 256 209 212 219 251 241 223 266 277 250 235 171 240 281 241 262 273 174
3 0 358 354 350 349 347 344 342 339 335 332 312 280 259 211 180 179 160 255 299 310 309 311 313 337 334 332 342 342 326 253 219 226 240 246 247 251 273 277 237 171 219 298 323 260 286
3 359 357 354 352 349 347 345 343 342 337 324 259 283 130 145 152 242 232 263 291 292 303 319 323 329 321 310 311 312 302 311 315 283 242 237 255 271 265 261 233 239 221 248 239 158 199
3 360 357 356 353 351 350 348 349 348 340 355 315 293 145 209 15 219 229 236 247 265 294 306 354 336 319 321 316 307 298 298 325 334 321 312 252 249 258 267 255 231 209 200 210 278 227
2 1 0 357 356 354 353 350 349 353 3 319 318 277 184 142 258 287 304 314 316 8 1 4 339 322 317 316 318 315 311 312 314 313 319 337 325 339 278 281 289 250 255 215 211 214 249
2 2 2 358 357 356 354 352 349 347 350 272 287 314 3 341 347 10 353 334 348 345 336 337 327 325 323 306 298 295 302 305 306 305 300 345 279 247 254 244 235 281 273 264 193 178 229
2 2 1 0 2 359 358 358 353 347 344 255 294 13 23 332 339 324 311 305 304 303 294 286 279 276 272 277 293 288 297 303 302 309 314 326 287 297 293 295 306 299 285 278 235 214 204
1 1 0 358 0 1 1 1 0 355 339 39 27 355 349 299 305 317 312 303 316 323 352 339 331 329 332 324 313 331 339 333 315 323 324 309 299 301 299 307 288 293 293 293 284 223 222
358 359 360 360 359 359 2 3 5 7 354 0 358 339 307 293 301 312 311 335 329 333 326 325 322 323 319 314 323 318 312 302 296 298 304 307 302 312 291 307 321 280 266 278 278 278 224
353 354 356 358 359 359 358 1 3 8 17 318 321 319 301 299 323 313 328 312 315 324 331 321 314 306 303 302 301 301 299 298 300 295 286 293 303 311 287 309 284 278 269 278 281 284 268
347 351 352 354 354 355 356 357 358 358 1 335 306 315 331 306 316 298 332 330 323 308 291 286 277 286 311 303 293 275 280 286 287 286 281 280 298 293 275 281 281 298 245 254 263 281 276
339 342 344 348 349 349 351 354 353 352 354 337 299 331 324 302 250 330 314 300 304 328 317 312 319 325 314 310 286 273 261 272 249 250 268 284 263 268 275 283 284 273 278 255 268 274 273
329 332 334 337 341 342 344 345 346 347 351 342 283 330 312 287 269 306 307 306 307 297 285 295 292 309 300 291 285 273 273 263 258 265 264 266 275 246 251 253 261 268 273 285 287 256 261
323 326 328 329 331 334 337 338 338 339 342 344 292 292 302 293 293 271 276 289 284 280 274 313 334 288 274 258 258 272 276 275 288 260 261 257 256 260 271 248 257 257 273 234 239 269 218
314 318 322 322 324 327 329 329 329 331 330 336 277 330 324 278 282 301 285 274 264 260 269 257 259 286 296 357 337 333 343 327 328 294 334 281 46 301 334 285 265 276 273 276 83 289 91